This demonstration page uses our WeatherBlox Daily Observations layout. Learn more.

Left ArrowRight Arrow

41.55636, -103.73856

Hourly Observations for July 11, 2017

Temp ( °F °C ) Dew Point ( °F °C ) Humidity (%) Winds ( mph kmh ) Pressure ( in mb ) Visibility ( mi km ) Precip ( " mm )
12:53 am 00:53 Clear 69 20.6 59 15 70 70 E 8 13 29.75 1007 10 16 0.00 0.00
1:53 am 01:53 Clear 68 20 60 15.6 76 76 ESE 6 9 29.74 1007 10 16 0.00 0.00
2:53 am 02:53 Clear 65 18.3 60 15.6 84 84 SE 7 11 29.73 1007 10 16 0.00 0.00
3:53 am 03:53 Clear 64 17.8 59 15 84 84 undefined N/A 29.72 1006 10 16 0.00 0.00
4:53 am 04:53 Clear 63 17.2 58 14.4 84 84 E 5 7 29.73 1007 10 16 0.00 0.00
5:53 am 05:53 Sunny 62 16.7 57 13.9 84 84 Calm 29.75 1008 10 16 0.00 0.00
6:53 am 06:53 Sunny 68 20 58 14.4 70 70 undefined N/A 29.78 1008 10 16 0.00 0.00
7:53 am 07:53 Sunny 71 21.7 58 14.4 63 63 W 8 13 29.78 1009 10 16 0.00 0.00
8:53 am 08:53 Sunny 78 25.6 57 13.9 48 48 W 7 11 29.78 1008 10 16 0.00 0.00
9:53 am 09:53 Sunny 83 28.3 57 13.9 41 41 WNW 10 17 29.78 1008 10 16 0.00 0.00
10:53 am 10:53 Sunny 85 29.4 56 13.3 37 37 undefined N/A 29.77 1008 N/A 0.00 0.00
11:53 am 11:53 Sunny 91 32.8 53 11.7 27 27 WNW 8 13 29.75 1008 10 16 0.00 0.00
12:53 pm 12:53 Sunny 93 33.9 53 11.7 26 26 W 10 17 29.74 1007 10 16 0.00 0.00
1:53 pm 13:53 Sunny 95 35 49 9.4 21 21 VRB 6 9 29.71 1006 10 16 0.00 0.00
2:53 pm 14:53 Sunny 97 36.1 42 5.6 15 15 WSW 8 13 29.70 1006 10 16 0.00 0.00
3:53 pm 15:53 Sunny 98 36.7 41 5 14 14 VRB 3 6 29.69 1006 10 16 0.00 0.00
4:53 pm 16:53 Sunny 96 35.6 44 6.7 17 17 WSW 6 9 29.68 1005 10 16 0.00 0.00
5:53 pm 17:53 Sunny 96 35.6 43 6.1 16 16 S 6 9 29.68 1005 10 16 0.00 0.00
6:53 pm 18:53 Sunny 93 33.9 45 7.2 19 19 W 3 6 29.68 1005 10 16 0.00 0.00
7:51 pm 19:51 Cloudy with Nearby Thunderstorms 82 28 50 10 32 32 NNE 21 33 29.65 1004 10 16 0.00 0.03
7:53 pm 19:53 Cloudy with Nearby Thunderstorms 81 27.2 50 10 34 34 N 22 35 29.76 1008 10 16 0.00 0.03
8:06 pm 20:06 Mostly Cloudy 79 26 52 11 39 39 NNE 16 26 29.65 1004 10 16 0.00 0.00
8:53 pm 20:53 Cloudy with Light Rain 79 26.1 54 12.2 42 42 undefined N/A 29.79 1009 10 16 0.00 0.03
9:53 pm 21:53 Clear 75 23.9 55 12.8 50 50 E 8 13 29.78 1008 10 16 0.00 0.03
10:53 pm 22:53 Clear 76 24.4 54 12.2 47 47 S 6 9 29.78 1008 10 16 0.00 0.00
11:53 pm 23:53 Clear 72 22.2 55 12.8 55 55 W 3 6 29.78 1008 10 16 0.00 0.00

Powered by AerisWeather